Lexington, NC

11:15 PM EDT on June 27, 2017 (GMT -0400)
Davidson County

Weather History for KEXX - August, 2013

Change the Weather History Date:

Tuesday, August 20, 2013

  Actual Average (KINT) Record (KINT)
Temperature  
Mean Temperature 70 °F -  
Max Temperature 78 °F 84 °F 98 °F (1983)
Min Temperature 63 °F 66 °F 53 °F (1976)
Cooling Degree Days 6    
Growing Degree Days 20 (Base 50)    
Moisture  
Dew Point 68 °F    
Average Humidity 91    
Maximum Humidity 100    
Minimum Humidity 73    
Precipitation  
Precipitation 0.00 in - - ()
Sea Level Pressure  
Sea Level Pressure 30.17 in    
Wind  
Wind Speed 0 mph (SSE)    
Max Wind Speed 4 mph    
Max Gust Speed -    
Visibility 6 miles    
Events Fog    
Averages and records for this station are not official NWS values.
T = Trace of Precipitation, MM = Missing Value Source: NWS Daily Summary

Daily Weather History Graph

Daily Weather History Graph

Search for Another Location

Airport or City:

Trip Planner

Search our weather history database for the weather conditions in past years. The results will help you decide how hot, cold, wet, or windy it might be!

Date:

Astronomy

Aug. 20, 2013 Rise Set
Actual Time 6:44 AM EDT 8:04 PM EDT
Civil Twilight 6:17 AM EDT 8:31 PM EDT
Nautical Twilight 5:45 AM EDT 9:02 PM EDT
Astronomical Twilight 5:11 AM EDT 9:36 PM EDT
Moon 7:37 PM EDT (8/20) 6:11 AM EDT (8/20)
Length of Visible Light 14h 13m
Length of Day
13h 20m
Full, 100% of the Moon is Illuminated
Aug 20
Full
Aug 20
Full
Aug 28
Last Quarter
Sep 5
New
Sep 12
First Quarter

Hourly Weather History & Observations

Time (EDT) Temp. Dew Point Humidity Pressure Visibility Wind Dir Wind Speed Gust Speed Precip Events Conditions
12:15 AM 65.3 °F 65.3 °F 100% 30.16 in 1.0 mi Calm Calm - N/A   Mist
12:35 AM 65.3 °F 65.3 °F 100% 30.16 in 3.0 mi Calm Calm - N/A   Clear
12:55 AM 64.8 °F 64.8 °F 100% 30.16 in 1.2 mi Calm Calm - N/A   Mist
1:15 AM 64.4 °F 64.4 °F 100% 30.16 in 0.8 mi Calm Calm - N/A   Mostly Cloudy
1:35 AM 64.0 °F 64.0 °F 100% 30.15 in 0.5 mi Calm Calm - N/A Fog Fog
1:55 AM 64.0 °F 64.0 °F 100% 30.14 in 1.0 mi Calm Calm - N/A   Mostly Cloudy
2:15 AM 63.5 °F 63.5 °F 100% 30.14 in 0.5 mi Calm Calm - N/A Fog Fog
2:35 AM 63.9 °F 63.9 °F 100% 30.14 in 0.8 mi Calm Calm - N/A   Overcast
2:55 AM 64.4 °F 64.4 °F 100% 30.13 in 0.2 mi Calm Calm - N/A Fog Fog
3:15 AM 63.9 °F 63.9 °F 100% 30.14 in 0.2 mi Calm Calm - N/A Fog Fog
3:35 AM 63.5 °F 63.5 °F 100% 30.14 in 0.5 mi Calm Calm - N/A Fog Fog
3:55 AM 63.5 °F 63.5 °F 100% 30.14 in 0.8 mi Calm Calm - N/A   Overcast
4:15 AM 63.3 °F 63.3 °F 100% 30.13 in 0.2 mi Calm Calm - N/A Fog Fog
4:35 AM 63.1 °F 63.1 °F 100% 30.13 in 0.8 mi Calm Calm - N/A   Overcast
4:55 AM - - N/A% 30.14 in 0.8 mi Calm Calm - N/A   Overcast
5:15 AM - - N/A% 30.14 in 0.2 mi Calm Calm - N/A Fog Fog
5:35 AM - - N/A% 30.14 in 0.8 mi Calm Calm - N/A   Overcast
5:55 AM - - N/A% 30.15 in 1.5 mi Calm Calm - N/A   Overcast
6:15 AM - - N/A% 30.15 in 1.2 mi Calm Calm - N/A   Overcast
6:35 AM - - N/A% 30.15 in 1.0 mi Calm Calm - N/A   Overcast
6:55 AM - - N/A% 30.16 in 1.8 mi Calm Calm - N/A   Overcast
7:15 AM - - N/A% 30.16 in 0.8 mi Calm Calm - N/A   Overcast
7:35 AM - - N/A% 30.17 in 0.5 mi Calm Calm - N/A Fog Fog
7:55 AM - - N/A% 30.17 in 2.0 mi Calm Calm - N/A   Overcast
8:15 AM - - N/A% 30.17 in 7.0 mi Calm Calm - N/A   Scattered Clouds
8:35 AM - - N/A% 30.17 in 5.0 mi Calm Calm - N/A   Haze
8:55 AM - - N/A% 30.18 in 5.0 mi Calm Calm - N/A   Haze
9:15 AM - - N/A% 30.18 in 5.0 mi Calm Calm - N/A   Haze
9:35 AM 68.5 °F 68.5 °F 100% 30.19 in 10.0 mi Calm Calm - N/A   Scattered Clouds
9:55 AM 70.0 °F 70.0 °F 100% 30.19 in 10.0 mi Calm Calm - N/A   Clear
10:15 AM 70.9 °F 70.9 °F 100% 30.19 in 10.0 mi Calm Calm - N/A   Clear
10:35 AM 72.5 °F 70.9 °F 95% 30.20 in 10.0 mi Calm Calm - N/A   Scattered Clouds
10:55 AM 73.4 °F 69.1 °F 86% 30.20 in 10.0 mi Calm Calm - N/A   Scattered Clouds
11:15 AM 73.9 °F 69.8 °F 87% 30.21 in 10.0 mi Calm Calm - N/A   Mostly Cloudy
11:35 AM 74.1 °F 68.7 °F 83% 30.21 in 10.0 mi Calm Calm - N/A   Mostly Cloudy
11:55 AM 74.7 °F 68.9 °F 82% 30.21 in 10.0 mi Calm Calm - N/A   Scattered Clouds
12:15 PM 75.6 °F 69.3 °F 81% 30.21 in 10.0 mi Calm Calm - N/A   Scattered Clouds
12:35 PM 76.1 °F 69.3 °F 79% 30.21 in 10.0 mi Calm Calm - N/A   Scattered Clouds
12:55 PM 75.9 °F 69.1 °F 79% 30.21 in 10.0 mi Calm Calm - N/A   Mostly Cloudy
1:15 PM 76.5 °F 68.2 °F 75% 30.21 in 10.0 mi Calm Calm - N/A   Mostly Cloudy
1:35 PM 77.0 °F 68.9 °F 76% 30.21 in 10.0 mi Calm Calm - N/A   Mostly Cloudy
1:55 PM 77.9 °F 68.7 °F 73% 30.21 in 10.0 mi Calm Calm - N/A   Mostly Cloudy
2:15 PM 77.2 °F 68.0 °F 73% 30.20 in 10.0 mi ESE 3.5 mph - N/A   Scattered Clouds
2:35 PM 77.4 °F 68.4 °F 74% 30.20 in 10.0 mi Calm Calm - N/A   Clear
2:55 PM 77.4 °F 69.4 °F 76% 30.19 in 10.0 mi Calm Calm - N/A   Clear
3:15 PM 77.0 °F 69.4 °F 77% 30.18 in 10.0 mi Calm Calm - N/A   Scattered Clouds
3:35 PM 78.3 °F 69.4 °F 74% 30.17 in 10.0 mi Calm Calm - N/A   Scattered Clouds
3:55 PM 78.1 °F 69.8 °F 76% 30.16 in 10.0 mi Calm Calm - N/A   Clear
4:15 PM 78.1 °F 70.2 °F 77% 30.16 in 10.0 mi Calm Calm - N/A   Scattered Clouds
4:35 PM 78.4 °F 70.7 °F 77% 30.15 in 10.0 mi Calm Calm - N/A   Mostly Cloudy
4:55 PM 77.7 °F 70.0 °F 77% 30.15 in 10.0 mi Calm Calm - N/A   Scattered Clouds
5:15 PM 77.5 °F 70.7 °F 79% 30.15 in 10.0 mi Calm Calm - N/A   Clear
5:35 PM 77.0 °F 71.2 °F 82% 30.15 in 10.0 mi Calm Calm - N/A   Clear
5:55 PM 76.5 °F 70.9 °F 83% 30.16 in 10.0 mi Calm Calm - N/A   Clear
6:15 PM 75.7 °F 70.7 °F 84% 30.16 in 10.0 mi SSW 3.5 mph - N/A   Scattered Clouds
6:35 PM 75.6 °F 70.7 °F 85% 30.16 in 10.0 mi Calm Calm - N/A   Scattered Clouds
6:55 PM 75.4 °F 70.9 °F 86% 30.17 in 10.0 mi SSE 3.5 mph - N/A   Scattered Clouds
7:15 PM 74.7 °F 71.2 °F 89% 30.17 in 10.0 mi Calm Calm - N/A   Clear
7:35 PM 72.5 °F 72.5 °F 100% 30.18 in 10.0 mi Calm Calm - N/A   Clear
7:55 PM 71.6 °F 71.6 °F 100% 30.18 in 10.0 mi Calm Calm - N/A   Clear
8:15 PM 70.9 °F 70.9 °F 100% 30.17 in 10.0 mi Calm Calm - N/A   Clear
8:35 PM 70.9 °F 70.9 °F 100% 30.17 in 10.0 mi Calm Calm - N/A   Clear
8:55 PM 70.7 °F 70.7 °F 100% 30.18 in 10.0 mi Calm Calm - N/A   Clear
9:15 PM 70.3 °F 70.3 °F 100% 30.18 in 10.0 mi Calm Calm - N/A   Clear
9:35 PM 70.0 °F 70.0 °F 100% 30.18 in 10.0 mi Calm Calm - N/A   Clear
9:55 PM 69.8 °F 69.8 °F 100% 30.19 in 10.0 mi Calm Calm - N/A   Clear
10:15 PM 69.3 °F 69.3 °F 100% 30.19 in 7.0 mi Calm Calm - N/A   Clear
10:35 PM 69.4 °F 69.4 °F 100% 30.20 in 7.0 mi Calm Calm - N/A   Clear
10:55 PM 69.4 °F 69.4 °F 100% 30.20 in 7.0 mi Calm Calm - N/A   Clear
11:15 PM 68.9 °F 68.9 °F 100% 30.21 in 5.0 mi Calm Calm - N/A   Clear
11:35 PM 68.5 °F 68.5 °F 100% 30.21 in 5.0 mi Calm Calm - N/A   Clear
11:55 PM 68.7 °F 68.7 °F 100% 30.21 in 5.0 mi Calm Calm - N/A   Clear